Regional Weather Roundup
Issued by NWS Cleveland, OH

Home | Current Version | Previous Version | Graphics & Text | Print | Product List | Glossary On
Versions: 1 2 3 4 5 6 7 8 9 10 11 12 13 14 15 16 17 18 19 20 21 22 23 24 25 26 27 28 29 30 31 32 33 34 35 36 37 38 39 40 41 42 43 44 45 46 47 48 49 50
000
ASUS41 KCLE 270210
RWRCLE
OHIO REGIONAL WEATHER ROUNDUP
NATIONAL WEATHER SERVICE WILMINGTON, OH
1000 PM EDT THU MAY 26 2016

NOTE: "FAIR" INDICATES FEW OR NO CLOUDS BELOW 12,000 FEET WITH NO
SIGNIFICANT WEATHER AND/OR OBSTRUCTIONS TO VISIBILITY.

OHZ001>008-015>018-024>027-034-035-043-044-270300-
   NORTHWEST OHIO

CITY           SKY/WX    TMP DP  RH WIND       PRES   REMARKS
DEFIANCE       FAIR      78  60  53 SW8       29.94R
FINDLAY        FAIR      76  64  66 SW14      29.94R
TOLEDO EXPRESS FAIR      77  64  64 SW9       29.93R
TOLEDO EXEC    FAIR      78  65  63 S7        29.93R
LIMA           FAIR      74  63  68 S10       29.97R
$$

OHZ009>014-019>023-028>033-038-089-270300-
   NORTHEAST OHIO

CITY           SKY/WX    TMP DP  RH WIND       PRES   REMARKS
CLE-HOPKINS    MOCLDY    78  65  63 S12       29.97R
CLE-LAKEFRONT  FAIR      79  65  62 S9        29.94R
CUY CO. ARPT   CLOUDY    79  68  69 S9        29.96R
LORAIN-ELYRIA  FAIR      75  64  68 S13       29.95R
ASHTABULA      FAIR      73  63  70 S6        29.98S
AKRON-CANTON   FAIR      73  65  75 S9        30.00R
WOOSTER        FAIR      72  65  78 S9        30.00R
MANSFIELD      FAIR      73  66  78 S13       29.98S
YOUNGSTOWN     MOCLDY    72  62  71 S5        30.00S
$$

OHZ042-051>053-060>062-070>072-077>081-270300-
  SOUTHWEST OHIO

CITY           SKY/WX    TMP DP  RH WIND       PRES   REMARKS
CINC-COVINGTON CLOUDY    67  65  93 SW7       30.01R
CINC-LUNKEN    FAIR      65  65 100 S3        30.02R
HAMILTON       FAIR      69  63  81 SW5       30.01R
DAYTON         FAIR      69  62  78 SW7       30.01R
WRIGHT-PAT AFB FAIR      70  64  81 S9        30.00R
DAYTON GENERAL FAIR      67  62  84 S7        30.00R
WILMINGTON     FAIR      67  65  93 SW6       30.01R
$$

OHZ036-037-039>041-045>050-054>059-063>069-073>076-082>088-270300-
  CENTRAL AND SOUTHEAST OHIO

CITY           SKY/WX    TMP DP  RH WIND       PRES   REMARKS
COLUMBUS       CLOUDY    74  66  76 S6        29.98R
OSU AIRPORT    FAIR      74  66  76 S9        29.98R
BOLTON FIELD   FAIR      72  67  83 S7        30.00R
RICKENBACK AFB FAIR      71  66  82 S5        29.98R
NEWARK         FAIR      74  66  76 S7        29.99R
MARION         FAIR      75  66  73 S13       29.98R
LANCASTER      FAIR      73  66  78 S7        30.00R
ZANESVILLE     FAIR      74  66  76 S7        30.00S
NEW PHILLY     MOCLDY    75  65  70 S5        30.01R
$$




USA.gov is the U.S. government's official web portal to all federal, state and local government web resources and services.